SCP
4 4 4 3 3 4 6 7 7 6 6 5 5 5 4 4 4 6 7 6 5 5 4 5 5 4 4 4 4 4 4 4 4 4 4 3 3 3 4 3 2 2 2
4 4 4 3 3 4 6 7 7 7 7 7 7 6 5 5 5 6 7 7 6 6 5 5 5 4 4 4 4 4 4 4 5 4 4 3 2 3 3 3 2 2 2
3 4 4 4 4 5 5 7 8 8 9 9 9 8 7 6 6 7 10 10 9 8 7 6 5 4 4 4 4 4 4 5 5 5 5 4 3 2 3 3 2 2 2
4 4 4 4 5 6 6 7 9 11 11 11 10 10 9 7 7 9 12 12 11 9 7 5 5 5 4 4 4 4 4 5 6 6 6 5 4 3 3 2 3 3 3
4 4 4 4 5 6 7 9 12 14 14 12 11 10 8 8 8 11 12 11 10 8 7 6 7 7 6 5 4 4 5 6 6 7 7 5 4 3 2 2 2 3 3
5 6 6 6 8 10 11 13 17 18 15 11 9 8 7 8 10 11 10 9 8 9 9 8 7 7 6 6 4 4 5 5 6 7 7 6 4 3 2 2 2 2 2
6 6 7 9 12 14 14 16 19 18 13 10 9 8 7 8 10 10 9 9 9 10 10 8 6 5 6 5 4 4 5 5 5 6 6 6 4 3 2 2 2 2 2
6 7 8 9 11 12 12 13 15 14 11 10 10 9 8 8 9 10 10 10 9 8 8 6 4 5 4 4 4 5 5 5 5 5 6 6 5 4 3 3 2 2 2
6 6 7 7 7 8 9 9 10 10 9 10 11 9 8 8 9 10 11 10 8 7 6 5 4 4 4 4 4 5 4 4 5 5 6 6 6 5 4 4 3 2 2
4 5 6 7 7 7 8 9 9 10 10 9 10 9 8 8 9 9 9 8 8 7 6 5 4 3 3 4 5 5 4 3 4 5 5 6 6 5 4 4 3 3 3
3 4 6 8 8 8 8 8 9 10 10 10 10 9 8 8 8 8 8 8 8 8 8 7 5 4 4 4 4 4 3 3 4 5 5 5 6 5 4 4 4 4 4
4 5 7 9 10 9 9 9 9 10 11 11 11 10 9 9 8 8 8 8 9 9 9 8 6 5 5 5 4 4 3 3 4 4 4 5 5 5 4 4 4 5 5
6 7 10 11 12 11 11 10 10 10 10 10 10 9 9 9 9 8 8 8 9 10 10 9 8 7 6 5 5 4 3 3 4 4 4 5 5 5 4 4 4 5 5
7 9 12 15 15 14 14 12 11 10 10 10 9 9 9 9 8 8 8 8 9 10 10 10 9 8 7 6 5 5 4 4 3 4 4 4 5 4 4 4 4 5 6
8 10 13 17 19 18 17 15 12 10 10 11 11 9 8 8 7 7 8 9 10 10 11 10 10 9 8 6 6 6 5 4 4 4 4 4 4 4 3 3 4 5 5
9 10 13 17 21 21 19 16 13 12 12 12 11 9 8 8 7 7 8 10 11 12 11 11 10 9 8 6 5 6 6 6 5 5 5 4 4 4 3 3 3 3 4
9 10 12 15 20 23 20 15 12 11 11 11 10 9 9 9 8 8 9 11 12 13 12 12 11 10 7 4 4 5 6 6 6 5 5 4 4 4 4 3 3 3 2
7 8 10 13 18 20 17 13 10 10 10 10 9 9 9 9 10 10 11 12 14 14 13 12 11 10 6 3 2 4 6 6 6 6 5 5 4 4 4 4 4 3 3
6 8 10 12 15 15 13 11 10 10 10 10 10 10 10 9 10 11 13 14 15 15 14 12 11 10 6 3 2 4 6 6 6 5 5 4 4 3 3 4 4 4 4
7 8 10 11 12 11 10 10 11 11 11 10 10 10 10 10 11 13 15 16 16 15 14 12 11 10 7 4 2 3 5 6 5 5 5 3 3 2 3 3 3 3 3
8 8 9 10 11 11 11 11 11 10 10 9 9 10 11 11 12 14 17 18 17 15 13 12 11 10 8 5 3 2 4 4 4 5 4 3 2 2 2 2 2 2 1
9 9 9 11 12 13 13 12 11 11 10 9 9 10 11 11 12 14 17 19 17 15 12 11 11 9 7 5 3 2 2 2 3 3 3 2 1 1 1 1 1 1 1
11 11 11 13 16 17 15 13 12 12 12 12 11 11 11 11 12 13 16 17 17 14 13 13 11 9 6 5 4 2 1 1 2 2 2 1 1 1 1 1 1 1 2
13 13 13 15 19 20 18 15 14 14 14 13 13 12 11 11 12 13 14 16 16 14 13 13 12 8 6 6 5 4 3 2 2 2 2 2 1 1 2 2 2 2 2
16 15 14 15 19 20 18 16 15 15 15 14 12 11 10 11 12 13 13 13 13 13 12 12 11 8 7 6 6 5 5 4 3 3 4 4 3 3 3 4 3 3 3
18 17 15 16 18 19 17 16 16 16 15 13 11 9 9 12 13 13 12 11 11 10 10 10 10 8 7 5 5 5 6 5 4 5 6 7 5 4 4 5 4 4 3
Wind_Speed
12 11 10 10 10 8 7 6 5 4 2 2 2 2 2 2 2 3 3 2 1 1 1 0 1 1 0 0 1 1 2 2 2 1 1 1 2 2 2 2 2 3 3
13 12 11 10 10 8 7 6 5 5 3 3 2 1 1 1 2 2 3 2 1 1 1 1 1 0 1 1 2 1 1 2 1 1 1 0 0 1 2 2 2 3 2
14 13 12 10 10 10 8 7 6 5 4 4 2 2 1 1 1 2 2 2 1 1 0 0 0 1 1 1 2 2 1 1 1 0 1 1 1 1 0 1 2 2 2
14 13 13 11 10 10 9 7 6 5 4 4 2 3 2 1 1 1 2 1 1 0 1 1 1 2 1 0 2 1 1 1 1 1 1 1 1 1 1 0 1 2 2
13 13 13 11 10 10 10 9 7 6 5 4 3 2 1 1 1 1 2 1 1 1 1 1 1 1 1 1 1 1 1 1 1 1 1 1 1 1 2 1 1 1 1
11 12 11 10 10 10 10 10 8 6 5 4 3 3 2 1 0 1 1 1 1 1 1 0 0 1 1 1 1 1 1 1 1 2 1 1 0 1 1 1 1 1 1
10 11 11 11 9 9 9 9 9 7 6 5 4 3 2 2 1 1 1 1 0 0 1 0 0 1 1 0 0 1 1 1 1 2 2 1 1 0 1 1 1 1 1
10 11 12 11 10 9 9 9 9 7 7 6 5 3 3 2 1 1 1 1 1 0 0 0 0 1 1 1 0 1 1 1 1 2 2 1 1 1 0 1 2 1 1
9 9 10 11 11 10 9 9 9 7 7 7 6 5 4 3 2 2 1 1 1 1 1 0 0 1 1 1 1 1 2 1 1 1 1 1 1 1 0 1 1 2 2
8 9 9 10 10 10 9 8 8 7 6 7 6 6 5 3 2 1 1 0 1 1 1 1 1 1 1 1 1 1 1 1 1 1 1 1 1 1 1 0 0 1 2
7 7 8 8 8 9 10 9 8 8 6 6 5 4 5 4 3 2 1 1 1 0 1 1 1 1 1 1 1 1 1 1 1 1 1 1 1 0 1 1 0 1 2
6 7 7 8 8 7 8 9 8 8 7 6 5 5 4 4 3 3 1 1 0 0 0 1 0 1 1 1 1 2 1 1 1 1 1 1 0 0 0 0 0 1 2
6 6 6 7 7 7 6 7 7 7 7 6 6 5 4 4 3 3 2 2 1 0 0 0 0 1 1 1 1 1 1 1 1 1 1 1 1 1 1 1 1 0 1
6 6 5 5 6 6 5 5 5 6 6 6 6 5 4 3 3 3 3 2 2 1 1 0 0 0 1 1 2 1 1 1 1 2 2 2 2 1 1 1 1 1 2
6 6 6 5 6 6 5 4 4 4 5 6 5 5 4 3 3 3 3 2 1 2 1 1 0 0 1 2 2 1 0 1 1 2 2 3 4 4 3 2 2 2 2
6 6 6 6 6 6 6 5 4 4 5 6 6 5 5 4 4 3 3 3 2 2 1 1 1 1 1 3 3 2 1 1 2 2 2 2 3 4 5 6 5 3 2
6 7 6 6 6 6 5 5 5 5 5 6 6 6 5 5 4 4 4 3 3 2 2 2 1 2 2 3 3 3 1 2 2 1 1 1 2 3 3 4 5 5 4
4 5 6 6 6 6 5 5 5 5 5 5 5 5 5 5 4 4 3 3 3 2 2 2 1 2 2 2 2 2 1 2 2 2 2 2 2 2 2 3 4 4 3
4 3 4 6 6 6 6 5 5 5 5 5 5 5 5 5 4 4 3 3 3 3 2 2 2 2 1 2 2 2 1 2 2 2 3 3 3 4 3 3 3 3 2
4 3 4 5 5 5 5 6 6 6 5 5 5 5 5 5 5 4 4 3 3 3 2 2 2 2 2 2 3 2 1 1 2 3 3 5 4 4 4 2 3 3 1
4 4 4 4 4 5 5 5 6 5 5 4 4 4 4 5 5 4 3 3 3 2 2 2 2 2 2 3 3 2 1 1 1 1 2 2 4 4 3 2 2 2 1
4 4 4 4 4 4 5 5 5 4 4 5 5 4 4 4 4 4 3 3 4 4 3 3 3 2 3 3 3 3 2 1 1 1 2 3 4 2 1 1 1 1 0
4 3 4 4 4 4 4 5 4 4 4 4 5 4 4 3 4 4 4 4 4 4 3 3 3 3 3 3 3 3 2 1 1 1 3 3 3 2 1 2 1 0 1
3 3 4 4 4 4 3 3 4 4 4 4 4 4 4 4 4 3 3 4 3 3 3 3 3 3 3 3 3 3 3 3 2 2 2 3 3 2 1 2 2 1 1
2 2 3 4 4 3 3 4 4 4 5 4 4 4 4 4 3 3 1 2 1 1 2 2 2 2 2 2 3 3 2 2 2 1 2 2 2 2 2 2 2 2 2
3 3 3 4 4 4 3 3 4 4 4 4 4 4 4 4 4 4 3 4 3 4 4 3 2 2 3 6 5 3 2 3 4 2 2 2 3 3 2 2 2 2 1
Wind_Direction
158 155 157 153 147 146 148 148 149 146 156 152 170 179 157 158 143 141 139 163 192 192 244 234 178 226 245 287 264 259 252 244 226 222 222 216 183 153 157 178 162 166 171
160 158 161 161 157 154 154 153 159 160 169 161 172 185 152 169 145 121 134 158 162 202 199 160 217 196 192 254 273 263 256 252 219 207 185 180 66 266 195 171 180 175 164
165 164 168 169 165 162 163 168 162 160 169 169 169 172 163 183 137 138 153 169 176 197 355 226 295 283 241 235 269 283 274 269 281 210 163 159 195 233 144 180 161 148 144
166 167 170 172 170 166 165 158 157 159 164 167 171 188 175 167 154 152 133 154 168 231 194 208 219 261 276 213 258 205 288 279 288 261 220 183 157 169 162 61 115 137 138
165 167 170 170 171 169 164 160 158 158 158 167 165 179 190 180 149 124 125 159 176 224 276 207 224 257 280 270 296 356 324 316 301 300 284 223 203 197 176 180 157 127 120
162 161 161 162 170 169 164 160 156 159 162 168 164 176 201 195 130 135 140 206 182 178 269 159 330 264 263 244 278 285 297 306 317 315 319 320 235 237 190 172 164 146 130
159 157 157 160 165 165 162 154 154 163 167 170 177 184 196 197 188 218 189 235 234 187 209 245 163 271 281 276 295 262 288 287 294 290 294 319 294 252 182 152 164 141 132
157 159 160 162 165 164 160 155 155 164 170 175 175 185 192 201 190 207 244 249 282 247 135 118 83 305 311 308 227 273 276 271 280 296 316 317 304 322 162 152 149 122 109
154 159 161 163 165 163 161 160 159 164 172 178 176 179 183 194 208 196 218 252 303 300 96 134 310 321 324 313 317 308 303 301 277 284 297 284 307 325 319 125 150 147 147
159 159 160 160 165 164 160 160 160 163 170 177 185 181 180 182 185 185 175 249 293 317 27 44 356 349 329 316 312 322 309 277 278 265 267 278 305 330 351 51 183 152 146
160 157 155 154 155 162 160 160 162 162 169 177 177 177 174 176 172 171 157 179 289 314 5 12 341 333 328 326 323 285 285 294 300 301 292 284 281 289 319 344 43 107 123
154 152 151 151 154 155 159 162 165 167 168 169 170 174 165 167 170 167 167 162 182 321 10 11 21 332 333 316 302 295 303 324 341 335 348 331 304 13 331 336 13 96 114
143 135 140 148 151 153 152 157 165 165 164 167 165 159 166 166 169 164 166 167 164 151 91 57 39 350 334 340 330 319 344 360 27 27 27 9 16 11 350 353 30 67 113
141 137 137 138 144 146 148 149 154 162 161 159 157 157 165 165 163 157 160 165 160 140 126 102 62 61 24 7 349 336 350 36 54 51 40 30 34 26 2 23 45 82 106
153 146 146 145 146 143 140 145 150 155 159 153 155 151 161 158 153 153 150 149 152 151 132 111 38 18 67 9 348 312 317 72 69 69 74 72 73 67 56 63 59 80 100
165 160 156 156 154 151 153 154 152 158 155 160 160 154 160 163 162 154 152 151 150 143 127 111 75 51 34 351 7 13 360 71 78 70 83 100 86 88 84 80 73 83 121
165 163 165 162 158 160 158 161 162 164 162 163 160 160 164 165 169 169 160 162 158 146 130 117 100 89 39 14 26 30 24 60 64 70 62 67 83 86 100 105 91 70 66
149 156 161 159 160 159 158 160 164 160 159 161 159 159 161 164 165 167 169 167 157 156 146 134 131 112 63 29 42 24 112 94 74 57 56 79 72 68 70 101 96 85 62
130 146 158 157 155 157 159 164 165 161 166 167 164 163 162 163 163 168 174 169 162 159 160 148 147 134 96 50 70 64 118 102 91 82 62 71 69 49 54 98 105 100 88
125 130 138 141 144 151 158 169 169 167 172 169 163 160 161 164 169 173 175 173 173 172 170 155 151 146 120 87 79 72 137 125 124 107 92 74 71 52 51 99 109 105 95
128 131 132 134 143 152 161 172 168 172 173 161 156 160 164 167 165 166 172 170 176 169 172 167 150 135 124 119 98 78 94 105 134 132 121 102 94 75 53 69 100 133 140
136 140 132 134 140 158 165 169 170 171 166 158 157 160 168 180 169 166 170 175 177 183 195 190 176 150 138 128 124 106 86 26 119 111 105 110 113 95 68 90 109 119 140
144 145 138 140 145 152 160 168 163 160 163 159 161 167 173 178 166 170 178 181 185 197 194 189 185 167 148 130 127 131 115 78 92 80 117 132 142 152 170 164 165 202 210
133 140 147 152 152 151 153 161 154 155 160 164 167 173 174 177 166 172 182 188 190 197 194 190 185 167 149 147 154 157 143 142 137 138 155 173 200 227 194 167 198 206 204
145 150 153 154 150 148 154 158 155 157 161 170 178 185 186 176 166 167 156 180 154 181 192 194 181 172 170 165 160 171 169 165 134 162 199 189 190 187 184 181 180 185 184
158 153 152 151 149 150 155 158 158 164 171 184 193 197 189 173 172 168 153 67 86 111 107 97 117 123 136 144 144 140 139 147 143 168 209 204 208 203 194 193 186 177 181